This demonstration page uses our WeatherBlox Daily Observations layout. Learn more.

Left ArrowRight Arrow

Hourly Observations for June 25, 2022

Temp ( °F °C ) Dew Point ( °F °C ) Humidity (%) Winds ( mph kmh ) Pressure ( in mb ) Visibility ( mi km ) Precip ( " mm )
12:53 am 00:53 Mostly Clear with Light Rain 50 10 45 7.2 83 83 WNW 14 22 30.27 1025 10 16 0.00 0.00
1:53 am 01:53 Partly Cloudy with Light Rain 47 8.3 44 6.7 90 90 W 10 17 30.29 1026 10 16 0.00 0.00
2:53 am 02:53 Mostly Cloudy with Light Rain 47 8.3 45 7.2 93 93 W 9 15 30.29 1026 10 16 0.00 0.00
3:53 am 03:53 Mostly Cloudy with Light Rain 47 8.3 44 6.7 90 90 W 13 20 30.30 1026 10 16 0.00 0.00
4:53 am 04:53 Mostly Cloudy with Light Rain 45 7.2 43 6.1 93 93 WSW 8 13 30.33 1027 10 16 0.00 0.00
5:53 am 05:53 Sunny 45 7.2 43 6.1 93 93 WSW 10 17 30.34 1027 10 16 0.00 0.00
6:53 am 06:53 Sunny 49 9.4 44 6.7 83 83 WSW 13 20 30.35 1028 10 16 0.00 0.00
7:53 am 07:53 Sunny 53 11.7 46 7.8 77 77 WSW 14 22 30.36 1028 10 16 0.00 0.00
8:53 am 08:53 Sunny 57 13.9 46 7.8 67 67 W 14 22 30.37 1029 10 16 0.00 0.00
9:53 am 09:53 Cloudy 59 15 46 7.8 62 62 WNW 12 19 30.38 1029 10 16 0.00 0.00
10:53 am 10:53 Mostly Sunny 64 17.8 46 7.8 52 52 WNW 15 24 30.37 1028 10 16 0.00 0.00
11:53 am 11:53 Mostly Sunny 68 20 43 6.1 40 40 WNW 18 30 30.35 1028 10 16 0.00 0.00
12:53 pm 12:53 Mostly Cloudy 66 18.9 40 4.4 39 39 WNW 20 31 30.35 1028 10 16 0.00 0.00
1:53 pm 13:53 Partly Cloudy 70 21.1 38 3.3 31 31 NNW 15 24 30.34 1027 10 16 0.00 0.00
2:53 pm 14:53 Mostly Cloudy 68 20 38 3.3 33 33 NW 12 19 30.35 1028 10 16 0.00 0.00
3:53 pm 15:53 Mostly Cloudy 71 21.7 39 3.9 31 31 N 15 24 30.34 1028 10 16 0.00 0.00
4:08 pm 16:08 Mostly Cloudy 70 21 36 2 29 29 N 13 20 30.24 1024 10 16 0.00 0.00
4:53 pm 16:53 Mostly Cloudy 70 21.1 37 2.8 30 30 N 20 31 30.35 1028 10 16 0.00 0.00
5:53 pm 17:53 Cloudy 66 18.9 39 3.9 37 37 N 16 26 30.36 1028 10 16 0.00 0.00
6:53 pm 18:53 Partly Cloudy 63 17.2 45 7.2 52 52 E 12 19 30.36 1028 10 16 0.00 0.00
7:53 pm 19:53 Sunny 63 17.2 43 6.1 48 48 E 8 13 30.36 1028 10 16 0.00 0.00
8:53 pm 20:53 Sunny 60 15.6 43 6.1 53 53 ESE 5 7 30.36 1028 10 16 0.00 0.00
9:53 pm 21:53 Clear 53 11.7 43 6.1 69 69 SSE 7 11 30.38 1029 10 16 0.00 0.00
10:53 pm 22:53 Clear 49 9.4 42 5.6 77 77 SE 6 9 30.39 1029 10 16 0.00 0.00
11:53 pm 23:53 Clear 51 10.6 41 5 69 69 SSE 6 9 30.38 1029 10 16 0.00 0.00

Powered by AerisWeather